Location: Ellerstadt
(49.4644°N, 8.2615°E)
Time: 05:04:53
(UTC+00:00)

Resurs 1-3 - Pass Details

Date: 03 March 2021
Orbit: 629 x 633 km, 97.9° (Epoch: 11 April)

Event Time Altitude Azimuth Distance (km) Brightness Sun altitude
Exits shadow 19:38:49 81° 182° (S) 648 3.5 -24.1°
Maximum altitude 19:39:02 87° 257° (WSW) 641 3.5 -24.2°
Drops below altitude 10° 19:43:28 10° 346° (NNW) 2,028 6.6 -24.9°
Sets 19:45:40 0° 347° (NNW) 2,941 7.5 -25.2°
